Location: Bucquoi
(50.6667°N, 3.2333°E)
Time: 12:30:17
(UTC+00:00)

Daily predictions for brighter satellites

Satellite Brightness Start Highest point End
(mag) Time Altitude Azimuth Time Altitude Azimuth Time Altitude Azimuth
Cosmos 2344 4.4 20:26:31 10° NW 20:34:57 70° NE 20:46:32 10° SE
Cosmos 2154 Rocket 4.3 20:37:12 10° N 20:43:18 54° ENE 20:49:21 10° SSE
COSMOS 2406 4.2 20:39:16 10° SSE 20:44:02 27° ESE 20:48:48 10° NE
Spot 2 Rocket 3.7 20:39:46 10° SSE 20:44:46 60° ENE 20:49:50 10° N
Cosmos 1025 Rocket 4.2 20:41:37 10° SSW 20:45:45 46° WNW 20:49:56 10° N
SPOT 5 2.7 20:50:24 10° SSE 20:54:43 68° ENE 20:59:02 10° N
Cosmos 2084 Rocket 3.3 20:51:59 10° NW 20:55:51 74° NE 20:59:53 10° SE
RESURS DK-1 2.8 20:52:44 10° NW 20:56:48 57° WSW 21:00:51 10° SSE
Cosmos 1703 3.3 20:53:04 10° S 20:56:53 63° E 21:00:42 10° NNE
Cosmos 1452 Rocket 3.5 20:54:26 10° SSW 20:59:42 82° ESE 21:04:59 10° NNE
Cosmos 1833 Rocket 2.8 20:54:26 10° S 20:59:54 56° ESE 21:05:24 10° NE
CZ-4B R/B 2.3 20:58:29 10° N 21:01:15 43° WNW 21:04:00 10° SW
Terra 2.1 20:56:47 10° SSE 21:01:26 57° ENE 21:06:07 10° N
FALCON 9 DEB 3.4 21:02:06 10° WNW 21:05:21 64° NNE 21:08:35 10° E
Helios 1A Rocket 2.9 21:01:26 10° SSE 21:05:30 80° ENE 21:09:38 10° NNW
Cosmos 1110 Rocket 4.1 21:00:31 10° S 21:05:42 62° ESE 21:10:57 10° NNE
Cosmos 2322 Rocket 4.2 21:03:15 10° NNW 21:07:26 20° NE 21:11:36 10° E
ERS-1 Rocket 3.0 21:02:57 10° SSE 21:07:59 81° ENE 21:13:03 10° NNW
Resurs 01 Rocket 3.5 21:04:56 10° SSW 21:08:42 27° W 21:12:30 10° NW
Cosmos 2228 3.0 21:06:26 10° N 21:10:42 86° WSW 21:14:56 10° S
Cosmos 2058 Rocket 4.1 21:07:33 10° N 21:11:34 32° ENE 21:15:19 11° SE
Cosmos 2184 Rocket 4.2 21:08:24 10° NNW 21:14:35 74° W 21:20:46 10° S
Lacrosse 5 4.1 21:14:23 10° W 21:17:00 14° WSW 21:19:38 10° SSW
Cosmos 1825 4.3 21:15:29 10° ESE 21:17:03 12° E 21:18:37 10° ENE
Cosmos 1408 3.9 21:16:14 13° SE 21:18:30 22° E 21:21:16 10° NE
Cosmos 2278 4.4 21:13:26 10° NNW 21:18:58 47° NE 21:24:23 10° SE
Cosmos 968 Rocket 3.7 21:16:44 10° NNW 21:21:56 67° ENE 21:26:36 13° SE
Cosmos 1328 3.9 21:22:12 10° S 21:26:09 59° E 21:30:05 10° NNE
USA 276 1.9 21:24:20 10° W 21:27:22 80° S 21:30:24 10° E
H-2A R/B 4.5 21:26:29 10° N 21:30:08 26° WNW 21:33:50 10° WSW
SJ 16-02 3.6 21:28:07 10° N 21:30:57 16° NE 21:33:47 10° E
Cosmos 1867 3.6 21:26:12 10° NW 21:31:43 84° NE 21:36:30 14° SE
Cosmos 2082 Rocket 2.6 21:28:22 10° S 21:33:45 45° ESE 21:39:09 10° NE
USA 267 4.0 21:31:11 10° ENE 21:36:41 28° SE 21:42:09 10° S
Cosmos 1606 Rocket 3.8 21:35:06 10° NNW 21:39:24 68° W 21:43:23 12° S
ARIANE 5 R/B 2.6 21:35:43 14° SSE 21:39:36 87° WSW 21:44:03 10° NNW
GP-B 3.7 21:36:10 10° NNE 21:40:24 42° E 21:43:35 16° SSE
Cosmos 2341 Rocket 4.1 21:35:23 10° N 21:41:43 68° ENE 21:47:01 15° SSE
Cosmos 2360 Rocket 4.1 21:39:04 10° NNW 21:43:34 23° NE 21:48:02 10° E
Meteor 1-21 Rocket 4.4 21:38:50 10° SSW 21:44:26 76° WNW 21:50:12 10° N
Cosmos 192 4.3 21:44:01 10° SSW 21:48:53 73° ESE 21:53:48 10° NNE
Okean 1-7 Rocket 4.3 21:58:40 19° SSE 22:01:27 40° E 22:05:40 10° NNE
SAR-Lupe-1 4.2 21:57:55 10° NNE 22:01:27 54° ESE 22:03:39 21° S
Cosmos 1726 Rocket 4.1 21:57:53 10° NNW 22:02:05 52° W 22:05:41 14° SSW
Cosmos 1892 2.7 22:02:06 19° S 22:04:40 67° E 22:08:25 10° NNE
Cosmos 2181 Rocket 4.1 22:07:21 16° S 22:12:14 65° E 22:18:25 10° NNE
USA 234 3.5 22:06:24 10° ESE 22:12:56 75° NNE 22:19:30 10° WNW
Cosmos 1633 4.0 22:12:09 19° ESE 22:13:23 23° E 22:16:10 10° NE
Cosmos 1697 Rocket 4.2 22:12:07 10° NW 22:16:42 26° WSW 22:21:16 10° SSW
Cosmos 1980 Rocket 2.8 22:11:20 10° NW 22:16:49 49° WSW 22:20:52 18° S
SL-16 R/B 2.6 22:11:20 10° NNW 22:16:57 58° NE 22:21:23 16° SE
Cosmos 1486 Rocket 4.0 22:12:15 10° NNW 22:17:30 86° ENE 22:21:05 21° SSE
Cosmos 1992 Rocket 4.2 22:15:19 18° S 22:19:06 54° ESE 22:24:14 10° NNE
Cosmos 1812 Rocket 4.2 22:15:10 10° N 22:19:28 44° ENE 22:22:08 21° SE
Cosmos 2219 Rocket 4.3 22:16:18 10° NNW 22:20:35 21° NE 22:24:52 10° E
Cosmos 1932 4.5 22:14:42 10° SSW 22:20:48 62° ESE 22:27:04 10° NE
TIMED 4.5 22:21:54 13° SSW 22:25:49 87° WNW 22:30:13 10° NNE
COSMOS 2406 3.8 22:22:15 10° SW 22:27:57 62° NW 22:33:41 10° NNE
Cosmos-2242 3.7 22:24:45 10° N 22:28:50 43° ENE 22:31:12 22° SE
ATLAS 5 CENTAUR R/B 1.4 22:29:23 22° SSW 22:31:34 50° SE 22:35:40 10° NE
Cosmos 1869 3.2 22:29:08 10° NNW 22:33:02 80° W 22:35:09 26° S
Cosmos 807 4.2 22:30:16 10° N 22:33:22 65° ENE 22:34:25 35° SSE
Cosmos 1602 Rocket 3.9 22:32:11 25° SSE 22:34:24 49° E 22:38:35 10° NNE
In-Cosmos 22 Rocket 4.1 22:30:23 17° S 22:34:47 90° WNW 22:40:15 10° NNE
ERS-2 4.2 22:35:01 10° ENE 22:36:51 13° E 22:37:40 13° ESE
Meteor 1-27 4.3 22:33:17 10° NNW 22:38:49 70° W 22:42:35 21° S
Terra 3.8 22:35:55 10° SW 22:39:33 21° W 22:43:11 10° NW
FALCON 9 DEB 3.4 22:38:26 10° WNW 22:41:33 42° SSW 22:42:17 35° S
ASTEX 1 3.9 22:36:51 10° N 22:41:46 57° WNW 22:45:50 15° SSW
ALOS 2 3.1 22:39:48 23° SE 22:42:22 53° ENE 22:46:39 10° N
Cosmos 1833 Rocket 4.4 22:39:04 10° WSW 22:44:07 33° NW 22:49:13 10° NNE
Cosmos 1354 Rocket 4.1 22:40:24 10° NNW 22:45:45 76° ENE 22:49:06 23° SSE
BREEZE-M DEB (TANK) 3.5 22:44:51 10° W 22:47:56 73° S 22:59:11 10° ESE
Cosmos 2058 Rocket 4.5 22:45:37 10° NNW 22:49:30 31° W 22:52:35 14° SW
ADEOS Rocket 3.7 22:45:43 20° SSE 22:51:13 73° ENE 22:58:59 10° NNW
Cosmos 1825 2.4 22:49:40 23° SSW 22:51:52 63° WNW 22:55:36 10° N
Cosmos 2322 Rocket 2.3 22:46:46 10° NNW 22:52:29 74° ENE 22:56:24 21° SE
Cosmos 1408 4.3 22:50:12 11° SW 22:53:04 27° WNW 22:56:04 10° NNW
Cosmos 1503 Rocket 4.0 22:50:12 10° NNW 22:55:31 78° WSW 22:58:35 25° SSE
Cosmos 1626 Rocket 3.7 22:54:43 22° SSW 22:57:29 68° WNW 23:01:51 10° N
USA 276 2.5 23:00:06 10° W 23:02:50 39° SSW 23:02:50 39° SSW
Cosmos 1777 Rocket 4.1 22:58:14 10° NNW 23:03:34 72° ENE 23:06:53 23° SE
Cosmos 2333 Rocket 3.1 23:02:06 10° NNW 23:07:39 45° NE 23:12:52 11° ESE
SJ 16-02 1.3 23:05:41 10° NNW 23:10:09 85° WSW 23:12:19 30° SSE
Cosmos 1825 Rocket 3.9 23:08:17 29° SSE 23:10:11 50° E 23:14:24 10° NNE
Gbstr 26 Del rocket 4.0 23:11:09 27° SSE 23:11:33 27° SE 23:15:45 10° E
Cosmos 1340 Rocket 3.8 23:13:04 26° SE 23:14:25 34° E 23:18:02 10° NNE
Cosmos 2082 Rocket 3.5 23:12:35 10° WSW 23:17:56 40° NW 23:23:18 10° NNE
Meteor 2-20 4.4 23:13:53 23° S 23:17:56 87° W 23:24:05 10° N
H-2A R/B 3.4 23:14:41 10° NNE 23:18:55 81° ESE 23:20:55 30° S
USA 267 3.2 23:13:48 10° ENE 23:20:22 78° SSE 23:26:56 10° SW
Cosmos 2221 3.3 23:21:46 10° N 23:25:58 43° ENE 23:28:18 23° SE
Cosmos 1606 2.8 23:22:55 10° NNW 23:26:46 65° W 23:28:16 34° SSW
Cosmos 2058 2.9 23:26:08 33° S 23:27:56 70° E 23:32:07 10° NNE
Cosmos 2360 Rocket 2.2 23:22:39 10° NNW 23:28:23 88° ENE 23:31:59 24° SSE
Cosmos 1934 Rocket 4.0 23:23:10 10° N 23:29:17 76° E 23:33:06 24° SSE
Meteor 2-2 Rocket 4.4 23:35:00 10° NNW 23:41:01 80° W 23:44:36 26° S
Cosmos 44 3.8 23:41:21 30° SSE 23:42:48 38° ESE 23:46:56 10° NE
Cosmos 1633 4.1 23:45:55 17° WSW 23:47:46 27° WNW 23:50:47 10° NNW
Cosmos 1758 Rocket 4.5 23:45:44 20° SW 23:48:20 42° WNW 23:52:32 10° N
Cosmos 2237 Rocket 4.2 23:47:54 10° NNW 23:52:36 26° NE 23:57:16 10° E
Cosmos 1339 Rocket 4.5 23:50:04 26° S 23:53:48 77° E 23:59:55 10° NNE
COSMOS 2428 3.5 23:48:51 10° NNW 23:54:26 51° NE 00:00:00 10° SE
